www.pogodaiklimat.ru

Погода и климат >> Архив погоды >> Египет >> Миня


ПОГОДА в Миня

  • Прогноз погоды в Миня
  • Монитор погоды в Миня

АРХИВ ПОГОДЫ в Миня

Время (UTC), дата Ветер
(напр.,м/с)
 
Видим.   Явления Облачность Т
(С)
Тd
(С)
f
(%)
Тe
(С)
Тes
(С)
Комфортность P
(гПа)
Po
(гПа)
Тmin
(С)
Tmax
(С)
R
(мм)
R24
(мм)
S
(см)
21 15.08 СВ 1 10 км ясно +29.6 +10.7 31 +30 +30 жарко 1005.9 1001.4
00 16.08 С 2 10 км ясно +28.1 +12.4 38 +29 +29 жарко 1005.5 1000.9
06 16.08 С 3 10 км ясно +28.4 +23.1 73 +38 +44 очень
душно
1007.8 1003.2 +26.3
09 16.08 С 2 10 км ясно +34.7 +19.1 40 +40 +61 опасность
солнечного
удара
1007.4 1002.9
12 16.08 СЗ 2 10 км ясно +39.3 +15.7 25 +41 +56 опасность
перегрева
1005.3 1000.9
15 16.08 С 3 10 км ясно +39.6 +14.6 23 +40 +42 очень
душно
1003.6 999.2
18 16.08 СЗ 2 10 км ясно +34.1 +15.0 32 +36 +36 душно 1005.8 1001.3 +40.4
21 16.08 С 2 10 км ясно +30.7 +15.9 41 +34 +34 очень
душно
1007.5 1003.0
00 17.08 С 3 10 км ясно +28.8 +20.8 62 +36 +36 очень
душно
1007.5 1002.9
03 17.08 С 3 10 км ясно +26.6 +23.0 81 +36 +36 очень
душно
1008.3 1003.7
06 17.08 С 3 10 км ясно +27.8 +23.6 78 +38 +44 очень
душно
1009.0 1004.4 +25.9
09 17.08 С 3 10 км ясно +33.0 +18.4 42 +38 +54 опасность
солнечного
удара
1006.8 1002.3
12 17.08 С 5 10 км ясно +36.9 +14.2 26 +38 +47 очень
душно
1006.7 1002.3
15 17.08 С 5 10 км ясно +36.9 +13.0 24 +37 +38 очень
жарко
1005.1 1000.7
18 17.08 С 3 10 км ясно +33.7 +12.6 28 +34 +34 очень
жарко
1005.8 1001.3 +37.8
21 17.08 С 5 10 км ясно +31.4 +16.2 40 +34 +34 душно 1007.1 1002.6
00 18.08 СЗ 2 10 км ясно +27.9 +16.8 51 +32 +32 душно 1007.5 1002.9
03 18.08 СЗ 2 10 км ясно +25.6 +19.5 69 +31 +31 очень
душно
1007.7 1003.1
09 18.08 СЗ 1 6000 м мгла ясно +31.6 +19.3 48 +37 +62 опасность
солнечного
удара
1007.8 1003.3
12 18.08 С 5 10 км ясно +35.4 +15.2 30 +37 +45 очень
душно
1006.2 1001.8
15 18.08 СВ 5 10 км ясно +36.0 +15.0 29 +38 +39 очень
душно
1005.1 1000.7
18 18.08 С 2 10 км ясно +31.9 +14.1 34 +33 +33 жарко 1006.2 1001.7 +37.6
00 19.08 С 1 10 км ясно +26.5 +16.7 55 +30 +30 душно 1008.1 1003.5
03 19.08 С 3 10 км ясно +24.2 +18.6 71 +29 +29 душно 1008.9 1004.3
06 19.08 С 3 10 км ясно +26.0 +19.9 69 +32 +37 очень
душно
1009.5 1004.9 +23.4
09 19.08 С 4 10 км ясно +30.7 +12.4 33 +32 +44 жарко 1009.5 1005.0
12 19.08 З 2 10 км ясно +34.6 +12.9 27 +35 +50 очень
жарко
1008.9 1004.4
18 19.08 С 2 10 км ясно +31.6 +13.3 33 +33 +33 жарко 1008.6 1004.1 +36.5
21 19.08 штиль 0 10 км ясно +26.8 +15.2 49 +30 +30 душно 1009.8 1005.2
00 20.08 СЗ 3 10 км ясно +25.0 +15.6 56 +28 +28 жарко 1010.0 1005.4
03 20.08 СЗ 2 10 км ясно +23.2 +17.6 71 +29 +29 душно 1010.5 1005.8
06 20.08 СЗ 3 10 км ясно +26.2 +19.6 67 +32 +37 очень
душно
1011.0 1006.4 +22.4
09 20.08 СВ 2 10 км ясно +32.6 +14.2 33 +34 +55 опасность
солнечного
удара
1011.0 1006.5
12 20.08 С 4 10 км ясно +35.0 +12.6 26 +35 +47 очень
жарко
1009.6 1005.1
15 20.08 С 5 10 км ясно +34.7 +12.4 26 +35 +36 очень
жарко
1008.7 1004.2
18 20.08 С 2 10 км ясно +31.0 +14.2 36 +33 +33 душно 1010.1 1005.6 +36.2
21 20.08 штиль 0 10 км ясно +26.4 +16.0 53 +30 +30 душно 1010.7 1006.1
00 21.08 С 3 10 км ясно +26.3 +17.4 58 +30 +30 душно 1010.6 1006.0
03 21.08 СЗ 1 6000 м дымка ясно +24.4 +21.2 82 +31 +31 очень
душно
1010.6 1006.0
06 21.08 СЗ 2 3000 м дымка ясно +26.4 +23.1 82 +35 +42 очень
душно
1011.4 1006.8 +24.1
09 21.08 С 3 10 км ясно +32.3 +17.8 42 +36 +52 опасность
солнечного
удара
1010.7 1006.2
12 21.08 С 5 10 км ясно +34.9 +14.2 29 +36 +45 душно 1009.0 1004.5
15 21.08 С 4 10 км ясно +35.1 +13.8 28 +36 +37 очень
жарко
1007.7 1003.2
18 21.08 С 2 10 км ясно +31.3 +12.1 31 +32 +32 жарко 1008.7 1004.2 +36.4
21 21.08 С 1 10 км ясно +26.6 +13.7 45 +29 +29 жарко 1009.3 1004.7
00 22.08 С 2 10 км ясно +25.0 +13.0 47 +27 +27 жарко 1008.8 1004.2
03 22.08 С 2 10 км ясно +24.7 +19.3 72 +30 +30 очень
душно
1009.2 1004.6
06 22.08 С 4 4000 м мгла ясно +25.9 +17.5 60 +30 +34 душно 1009.6 1005.0 +23.4
09 22.08 С 5 6000 м мгла ясно +31.7 +15.6 38 +34 +45 душно 1008.6 1004.1
12 22.08 С 5 10 км ясно +34.2 +13.6 29 +35 +43 очень
жарко
1006.9 1002.4
15 22.08 С 5 10 км ясно +34.9 +14.8 30 +36 +38 душно 1005.9 1001.4
18 22.08 С 2 10 км ясно +31.3 +14.0 35 +33 +33 жарко 1007.3 1002.8 +35.4

 

Местоположение метеостанции Миня (Египет): широта 28.08 долгота 30.73 высота над уровнем моря 40 м.

В архиве по умолчанию представлена погода в Миня за последнюю неделю. Архивные данные за месяц целиком и за предыдущие месяцы, начиная с января 2011 года, Вы можете получить, выбрав интересующий диапазон дат из раскрывающегося списка и нажав кнопку "Ввод!".


*Определитесь, кто Вы:
робот инопланетянин человек

Внимание! Время в таблицах - всемирное. Для получения местного времени необходимо прибавить поправку, которая равна 2 ч.

Смотрите также архив погоды в соседних городах и на ближайших метеорологических станциях:

Погода в Асьюте (Египет) (118 км)
Погода в Бахарии (Египет) (182 км)
Погода в Каире (Египет) (237 км)
Погода в Рас-Седре (Египет) (256 км)
Погода в Абу Редис (Египет) (256 км)
Погода в Вади-эль-Натруон (Египет) (263 км)
Погода в Эль-Торе (Египет) (284 км)
Погода в Университете South Of Valley (Египет) (289 км)
Погода в Харге (Египет) (293 км)
Погода в Фарафре (Египет) (294 км)

Пояснения к столбцам:

Ветер - указаны скорость ветра в м/с - средняя за 10 мин, порывы в срок и между сроками (в фигурных скобках) и направление, откуда дует ветер: С - северный, СВ - северо-восточный, В - восточный, ЮВ - юго-восточный, Ю - южный, ЮЗ - юго-западный, З - западный, СЗ - северо-западный.
Видимость - горизонтальная дальность видимости в метрах или километрах. При видимости от 1 до 10 км при отсутствии осадков обычно наблюдается дымка, при ухудшении видимости до 1 км и менее - туман. В сухую погоду видимость может ухудшаться дымом, пылью или мглою.
Явления - указаны атмосферные явления, наблюдавшиеся в срок или в последний час перед сроком; фигурными скобками обозначены явления, наблюдавшиеся между сроками (за 1-3 часа до срока); квадратными скобками обозначены град или гололедные отложения с указанием их диаметра в мм.
Облачность - указаны через наклонную черту общая и нижняя облачность в баллах и высота нижней границы облаков в метрах; квадратными скобками обозначены формы облаков: Ci - перистые, Cs - перисто-слоистые, Cc - перисто-кучевые, Ac - высококучевые, As - высокослоистые, Sc - слоисто-кучевые, Ns - слоисто-дождевые, Cu - кучевые, Cb - кучево-дождевые. Подробнее классификацию облаков см. в Атласе облаков (PDF).
T - Температура воздуха - температура, измеренная на высоте 2 м над землей.
Td - Температура точки росы - температура, при понижении до которой содержащийся в воздухе водяной пар достигнет насыщения.
f - Относительная влажность воздуха - влажноcть воздуха, измеренная на высоте 2 м над землей.
Te - Эффективная температура - температура, которую ощущает одетый по сезону человек в тени. Характеристика душности погоды. При расчете учитывается влияние влажности воздуха и скорости ветра на теплоощущения человека.
Tes - Эффективная температура на солнце - температура, которую ощущает человек, с поправкой на солнечный нагрев. Характеристика знойности погоды. Зависит от высоты солнца над горизонтом, облачности и скорости ветра. Ночью, в пасмурную погоду, а также при ветре 12 м/с и более поправка равна нулю.
P - Атмосферное давление - приведенное к уровню моря атмосферное давление.
Po - Атмосферное давление - измеренное на уровне метеостанции атмосферное давление.
Tmin - Минимальная температура - минимум температуры воздуха на высоте 2 м над землей.
Tmax - Максимальная температура - максимум температуры воздуха на высоте 2 м над землей.
R - Количество осадков - Количество выпавших осадков за период времени, мм. При наведении курсора мыши на число - период времени, за который выпало указанное количество осадков.
R24 - Количество осадков - Количество выпавших осадков за 24 часа, мм.
S - Снежный покров - Высота снежного покрова, см. При наведении курсора мыши на число - состояние снежного покрова и степень покрытия местности в баллах.